sat.trackr.live / text

‹ back to catalog

RASSVET-3 8

NORAD 68367 · 2026-061H

PAYLOAD ACTIVE UNKNOWN

§ Identity

Operator
Country
CIS
Launch date
2026-03-23
Launch site
PLMSC
Launch vehicle
Mass (kg)
RCS (m²)

External: N2YO · Heavens-Above · Gunter

§ Orbital elements

Epoch: 2026-09-19T23:44:10.425984Z

Period
94.80 min
Inclination
82.2888°
Eccentricity
0.0005138
Mean motion
15.18961870 rev/d
Perigee alt
505.4 km
Apogee alt
512.5 km
Semi-major
6,887.1 km
B*
1.0420e-4
RAAN
274.8252°
Arg perigee
126.2561°
Mean anomaly
233.9148°
Rev number
2,799

§ Raw data

RASSVET-3 81 68367U 26061H   26262.98900956  .00002208  00000+0  10420-3 0  99902 68367  82.2888 274.8252 0005138 126.2561 233.9148 15.18961870 27991

JSON: /api/v1/satellites/68367 · /tle

For live sub-satellite position, see the globe view (requires WebGL).

§ Visibility from observer

Set your observer location to see the next 7 days of passes ≥ 10°. The values pass through the URL so the page stays shareable.

No JS? Fill the form by hand. The geolocation button needs JavaScript.